| time (UTC) | temp F | wind direction | speed MPH | gust MPH | rain 1hr in | rain 24hr in | rain mn in | humidity % | barometer mb |
| 20260505100523 | 49 | 354 | 1.0 | 5.0 | 0.07 | 0.42 | 0.42 | 91 | 1010.5 |
| 20260505095539 | 49 | 132 | 5.0 | 8.0 | 0.12 | 0.42 | 0.42 | 90 | 1009.9 |
| 20260505094521 | 49 | 99 | 7.0 | 11.0 | 0.16 | 0.42 | 0.42 | 89 | 1008.5 |
| 20260505093550 | 49 | 110 | 10.0 | 21.0 | 0.17 | 0.42 | 0.42 | 89 | 1007.9 |
| 20260505092520 | 49 | 41 | 10.0 | 16.0 | 0.21 | 0.42 | 0.42 | 89 | 1008.5 |
| 20260505091526 | 49 | 123 | 7.0 | 12.0 | 0.31 | 0.41 | 0.41 | 89 | 1008.6 |
| 20260505090534 | 50 | 60 | 10.0 | 14.0 | 0.35 | 0.35 | 0.35 | 89 | 1008.6 |
| 20260505085523 | 50 | 141 | 14.0 | 20.0 | 0.30 | 0.30 | 0.30 | 88 | 1008.8 |
| 20260505084528 | 51 | 307 | 11.0 | 16.0 | 0.26 | 0.26 | 0.26 | 87 | 1009.5 |
| 20260505083520 | 52 | 295 | 11.0 | 16.0 | 0.25 | 0.25 | 0.25 | 88 | 1010.1 |
| 20260505082523 | 52 | 267 | 11.0 | 18.0 | 0.21 | 0.21 | 0.21 | 87 | 1010.1 |
| 20260505081530 | 54 | 265 | 13.0 | 18.0 | 0.10 | 0.10 | 0.10 | 81 | 1009.7 |
| 20260505080519 | 60 | 263 | 13.0 | 18.0 | 0.00 | 0.00 | 0.00 | 63 | 1008.5 |
| 20260505075525 | 64 | 268 | 10.0 | 15.0 | 0.00 | 0.00 | 0.00 | 55 | 1007.6 |
| 20260505074522 | 66 | 141 | 7.0 | 11.0 | 0.00 | 0.00 | 0.00 | 59 | 1006.4 |
| 20260505073540 | 67 | 301 | 3.0 | 4.0 | 0.00 | 0.00 | 0.00 | 67 | 1006.1 |
| 20260505072518 | 67 | 245 | 1.0 | 3.0 | 0.00 | 0.00 | 0.00 | 67 | 1005.7 |
| 20260505071547 | 67 | 113 | 0.0 | 2.0 | 0.00 | 0.00 | 0.00 | 66 | 1005.5 |
| 20260505070522 | 67 | 114 | 1.0 | 2.0 | 0.00 | 0.00 | 0.00 | 66 | 1005.5 |
| 20260505065524 | 67 | 137 | 1.0 | 2.0 | 0.00 | 0.00 | 0.00 | 65 | 1005.5 |
| 20260505064538 | 68 | 140 | 1.0 | 2.0 | 0.00 | 0.00 | 0.00 | 65 | 1005.7 |
| 20260505063524 | 67 | 125 | 0.0 | 2.0 | 0.00 | 0.00 | 0.00 | 65 | 1005.9 |
| 20260505062530 | 68 | 70 | 1.0 | 2.0 | 0.00 | 0.00 | 0.00 | 65 | 1006.1 |
| 20260505061522 | 68 | 304 | 0.0 | 2.0 | 0.00 | 0.00 | 0.00 | 64 | 1006.1 |
| 20260505060547 | 68 | 126 | 0.0 | 2.0 | 0.00 | 0.00 | 0.00 | 64 | 1006.3 |
| 20260505055531 | 68 | 214 | 1.0 | 2.0 | 0.00 | 0.00 | 0.00 | 64 | 1006.1 |
| 20260505054521 | 68 | 359 | 1.0 | 3.0 | 0.00 | 0.00 | 0.00 | 64 | 1006.0 |
| 20260505053527 | 68 | 147 | 1.0 | 3.0 | 0.00 | 0.00 | 0.00 | 64 | 1005.5 |
| 20260505052542 | 68 | 183 | 1.0 | 3.0 | 0.00 | 0.00 | 0.00 | 64 | 1005.1 |
| 20260505051522 | 68 | 106 | 2.0 | 3.0 | 0.00 | 0.00 | 0.00 | 64 | 1005.1 |
| 20260505050520 | 68 | 327 | 1.0 | 3.0 | 0.00 | 0.00 | 0.00 | 64 | 1005.2 |
| 20260505041546 | 69 | 90 | 0.0 | 2.0 | 0.00 | 0.00 | 0.00 | 62 | 1006.4 |
| 20260505040531 | 70 | 186 | 1.0 | 3.0 | 0.00 | 0.00 | 0.00 | 62 | 1006.4 |
| 20260505035541 | 70 | 71 | 0.0 | 2.0 | 0.00 | 0.00 | 0.00 | 61 | 1006.4 |
| 20260505034528 | 70 | 129 | 1.0 | 3.0 | 0.00 | 0.00 | 0.00 | 60 | 1006.5 |
| 20260505033533 | 71 | 201 | 1.0 | 2.0 | 0.00 | 0.00 | 0.00 | 60 | 1006.5 |
| 20260505032542 | 71 | 298 | 2.0 | 4.0 | 0.00 | 0.00 | 0.00 | 59 | 1006.4 |
| 20260505031609 | 71 | 247 | 1.0 | 2.0 | 0.00 | 0.00 | 0.00 | 58 | 1006.3 |
| 20260505030543 | 72 | 178 | 2.0 | 3.0 | 0.00 | 0.00 | 0.00 | 58 | 1006.3 |
| 20260505025524 | 72 | 93 | 2.0 | 2.0 | 0.00 | 0.00 | 0.00 | 58 | 1006.3 |
| 20260505024540 | 72 | 50 | 2.0 | 4.0 | 0.00 | 0.00 | 0.00 | 57 | 1006.1 |
| 20260505023519 | 73 | 113 | 1.0 | 3.0 | 0.00 | 0.00 | 0.00 | 57 | 1006.0 |
| 20260505022525 | 73 | 346 | 2.0 | 4.0 | 0.00 | 0.00 | 0.00 | 56 | 1005.8 |
| 20260505021526 | 73 | 331 | 2.0 | 4.0 | 0.00 | 0.00 | 0.00 | 57 | 1005.6 |
| 20260505020521 | 74 | 133 | 2.0 | 4.0 | 0.00 | 0.00 | 0.00 | 56 | 1005.5 |
| 20260505015523 | 74 | 85 | 2.0 | 3.0 | 0.00 | 0.00 | 0.00 | 55 | 1005.4 |
| 20260505014553 | 74 | 98 | 2.0 | 4.0 | 0.00 | 0.00 | 0.00 | 54 | 1005.2 |
| 20260505013523 | 75 | 170 | 2.0 | 4.0 | 0.00 | 0.00 | 0.00 | 54 | 1005.0 |
| 20260505012529 | 75 | 140 | 2.0 | 4.0 | 0.00 | 0.00 | 0.00 | 54 | 1004.8 |
| 20260505011537 | 75 | 56 | 2.0 | 4.0 | 0.00 | 0.00 | 0.00 | 53 | 1004.7 |
| 20260505010527 | 75 | 16 | 3.0 | 4.0 | 0.00 | 0.00 | 0.00 | 54 | 1004.7 |
| 20260505005530 | 76 | 144 | 2.0 | 4.0 | 0.00 | 0.00 | 0.00 | 54 | 1004.6 |
| 20260505004520 | 76 | 4 | 2.0 | 4.0 | 0.00 | 0.00 | 0.00 | 53 | 1004.5 |
| 20260505003526 | 77 | 359 | 2.0 | 3.0 | 0.00 | 0.00 | 0.00 | 53 | 1004.4 |
| 20260505002521 | 77 | 3 | 2.0 | 4.0 | 0.00 | 0.00 | 0.00 | 52 | 1004.4 |
| 20260505001522 | 78 | 101 | 3.0 | 5.0 | 0.00 | 0.00 | 0.00 | 51 | 1004.3 |
| 20260505000519 | 79 | 96 | 1.0 | 3.0 | 0.00 | 0.00 | 0.00 | 50 | 1004.3 |
| 20260504235527 | 79 | 98 | 2.0 | 3.0 | 0.00 | 0.00 | 0.00 | 49 | 1004.2 |
| 20260504234523 | 80 | 117 | 2.0 | 4.0 | 0.00 | 0.00 | 0.00 | 48 | 1004.3 |
| 20260504233525 | 80 | 140 | 2.0 | 4.0 | 0.00 | 0.00 | 0.00 | 47 | 1004.3 |
| 20260504232532 | 81 | 75 | 3.0 | 5.0 | 0.00 | 0.00 | 0.00 | 46 | 1004.3 |
| 20260504231525 | 80 | 105 | 2.0 | 4.0 | 0.00 | 0.00 | 0.00 | 47 | 1004.3 |
| 20260504230531 | 80 | 108 | 2.0 | 3.0 | 0.00 | 0.00 | 0.00 | 47 | 1004.3 |
| 20260504225520 | 80 | 336 | 2.0 | 4.0 | 0.00 | 0.00 | 0.00 | 47 | 1004.3 |
| 20260504224527 | 80 | 189 | 3.0 | 4.0 | 0.00 | 0.00 | 0.00 | 46 | 1004.2 |
| 20260504223535 | 81 | 91 | 3.0 | 5.0 | 0.00 | 0.00 | 0.00 | 44 | 1004.4 |
| 20260504222545 | 81 | 123 | 3.0 | 7.0 | 0.00 | 0.00 | 0.00 | 44 | 1004.3 |
| 20260504221548 | 82 | 47 | 3.0 | 6.0 | 0.00 | 0.00 | 0.00 | 43 | 1004.2 |
| 20260504220522 | 82 | 110 | 3.0 | 6.0 | 0.00 | 0.00 | 0.00 | 42 | 1004.4 |
| 20260504215523 | 83 | 121 | 3.0 | 6.0 | 0.00 | 0.00 | 0.00 | 42 | 1004.5 |
| 20260504214519 | 83 | 84 | 4.0 | 6.0 | 0.00 | 0.00 | 0.00 | 42 | 1004.5 |
| 20260504213519 | 84 | 103 | 4.0 | 6.0 | 0.00 | 0.00 | 0.00 | 42 | 1004.6 |
| 20260504212525 | 83 | 228 | 4.0 | 6.0 | 0.00 | 0.00 | 0.00 | 42 | 1004.6 |
| 20260504211525 | 83 | 356 | 4.0 | 6.0 | 0.00 | 0.00 | 0.00 | 41 | 1004.5 |
| 20260504210520 | 84 | 73 | 3.0 | 5.0 | 0.00 | 0.00 | 0.00 | 42 | 1004.6 |
| 20260504205522 | 84 | 129 | 5.0 | 9.0 | 0.00 | 0.00 | 0.00 | 41 | 1004.6 |
| 20260504204532 | 83 | 289 | 4.0 | 5.0 | 0.00 | 0.00 | 0.00 | 41 | 1004.8 |
| 20260504203522 | 83 | 46 | 4.0 | 6.0 | 0.00 | 0.00 | 0.00 | 41 | 1004.9 |
| 20260504202529 | 84 | 91 | 4.0 | 6.0 | 0.00 | 0.00 | 0.00 | 41 | 1005.0 |
| 20260504201535 | 84 | 341 | 4.0 | 6.0 | 0.00 | 0.00 | 0.00 | 41 | 1005.1 |
| 20260504200524 | 84 | 103 | 4.0 | 8.0 | 0.00 | 0.00 | 0.00 | 42 | 1005.2 |
| 20260504195529 | 84 | 152 | 4.0 | 5.0 | 0.00 | 0.00 | 0.00 | 41 | 1005.3 |
| 20260504194542 | 83 | 128 | 4.0 | 5.0 | 0.00 | 0.00 | 0.00 | 41 | 1005.3 |
| 20260504193525 | 82 | 99 | 4.0 | 7.0 | 0.00 | 0.00 | 0.00 | 41 | 1005.4 |
| 20260504192519 | 85 | 92 | 4.0 | 8.0 | 0.00 | 0.00 | 0.00 | 41 | 1005.4 |
| 20260504191521 | 84 | 118 | 4.0 | 5.0 | 0.00 | 0.00 | 0.00 | 41 | 1005.4 |
| 20260504190527 | 84 | 67 | 4.0 | 5.0 | 0.00 | 0.00 | 0.00 | 40 | 1005.5 |
| 20260504185545 | 84 | 212 | 4.0 | 7.0 | 0.00 | 0.00 | 0.00 | 41 | 1005.5 |
| 20260504184522 | 83 | 195 | 4.0 | 5.0 | 0.00 | 0.00 | 0.00 | 41 | 1005.5 |
| 20260504183522 | 84 | 170 | 3.0 | 6.0 | 0.00 | 0.00 | 0.00 | 41 | 1005.7 |
| 20260504182530 | 84 | 166 | 5.0 | 9.0 | 0.00 | 0.00 | 0.00 | 42 | 1005.8 |
| 20260504181519 | 83 | 85 | 4.0 | 5.0 | 0.00 | 0.00 | 0.00 | 43 | 1005.8 |
| 20260504180530 | 82 | 92 | 3.0 | 6.0 | 0.00 | 0.00 | 0.00 | 41 | 1005.9 |
| 20260504175519 | 82 | 89 | 4.0 | 5.0 | 0.00 | 0.00 | 0.00 | 42 | 1006.0 |
| 20260504174525 | 82 | 236 | 3.0 | 6.0 | 0.00 | 0.00 | 0.00 | 43 | 1006.1 |
| 20260504173658 | 82 | 57 | 5.0 | 6.0 | 0.00 | 0.00 | 0.00 | 42 | 1006.1 |
| 20260504172522 | 83 | 44 | 3.0 | 5.0 | 0.00 | 0.00 | 0.00 | 43 | 1006.2 |
| 20260504171527 | 82 | 226 | 3.0 | 4.0 | 0.00 | 0.00 | 0.00 | 44 | 1006.1 |
| 20260504170520 | 80 | 33 | 4.0 | 6.0 | 0.00 | 0.00 | 0.00 | 43 | 1006.3 |
| 20260504151019 | 75 | 6.0 | 6.0 | 0.00 | 0.00 | 0.00 | 45 | 1007.1 | |
| 20260504150106 | 75 | 284 | 5.0 | 7.0 | 0.00 | 0.00 | 0.00 | 44 | 1006.9 |
| 20260504141023 | 74 | 173 | 4.0 | 8.0 | 0.00 | 0.00 | 0.00 | 43 | 1007.0 |